RH
49 52 54 60 72 80 77 68 82 66 56 55 54 47 46 41 38 35 33 34 38 40 43 50 48 48 48 47 43 49 53 56 62 56 54 57 53 41 33 46 38 40 32
55 54 63 81 84 86 89 92 76 67 62 58 60 56 48 40 36 35 34 36 37 37 37 46 47 45 45 45 46 50 51 56 62 60 68 57 49 45 26 42 40 38 39
54 61 77 86 90 92 95 88 78 71 64 54 46 42 36 35 37 34 40 37 36 38 39 41 44 45 48 49 49 50 48 53 53 57 43 45 56 58 49 33 46 31 46
50 61 85 90 92 92 92 81 72 64 54 49 44 39 40 41 49 47 40 37 36 36 38 39 40 43 46 44 44 42 49 51 53 59 42 54 56 56 58 52 34 45 32
54 67 80 84 90 90 88 80 69 64 62 54 46 48 52 53 56 43 37 34 36 35 35 36 37 40 46 43 41 42 42 51 51 55 59 58 57 59 68 47 53 36 32
56 68 86 84 87 87 84 77 70 73 67 60 58 50 51 48 44 46 44 41 40 40 34 33 36 36 39 40 43 40 40 43 45 48 50 52 50 52 56 53 44 43 36
68 83 84 83 82 81 80 74 68 72 66 62 58 55 50 43 42 43 44 38 34 36 33 33 32 34 35 38 39 40 41 43 45 46 47 50 54 55 58 50 51 49 44
66 74 79 78 76 73 72 70 68 65 60 56 52 45 40 42 40 38 37 34 33 33 31 31 30 30 32 35 37 44 45 42 48 45 48 53 53 55 55 56 62 67 56
67 74 76 74 70 68 66 64 61 56 51 45 40 39 37 36 35 32 32 34 32 26 29 29 30 32 33 35 37 42 42 45 47 51 53 53 54 59 63 65 65 72 80
71 75 73 69 64 63 60 55 50 46 42 37 34 34 32 31 32 31 29 28 28 28 29 31 32 34 36 37 39 45 46 46 48 46 50 55 59 63 68 71 68 70 77
72 76 70 65 64 60 54 49 42 37 35 32 31 31 31 29 28 27 28 28 29 29 30 33 35 37 39 40 43 45 44 45 49 49 54 59 62 68 63 67 71 74 74
76 72 71 67 60 56 52 47 40 34 32 30 29 31 31 30 29 29 29 29 30 32 33 36 38 39 42 44 46 47 48 50 52 52 58 62 48 68 68 71 72 72 69
80 77 72 65 61 56 50 42 37 33 31 30 32 33 32 31 31 32 32 32 33 35 37 39 41 43 47 47 47 47 49 52 54 58 62 63 67 70 68 68 70 72 62
78 77 73 67 62 54 47 41 38 32 33 34 34 35 34 34 34 35 35 36 36 38 40 41 43 46 47 46 44 49 54 58 55 60 64 66 68 69 70 67 66 69 67
82 78 74 70 64 55 47 40 36 34 34 35 38 39 38 37 38 38 38 38 39 38 41 44 46 50 44 31 51 55 58 60 61 62 63 62 63 60 57 53 60 61 70
78 76 72 69 62 53 44 36 35 37 36 38 42 42 40 38 39 38 37 38 38 40 45 48 51 54 35 47 51 52 63 63 64 66 63 64 62 64 63 65 63 60 64
75 75 72 67 61 52 39 36 35 39 38 41 42 40 38 38 38 35 35 37 39 45 49 49 50 49 50 47 52 55 65 68 71 69 65 63 53 67 75 75 66 80 84
73 72 71 69 62 47 40 36 37 38 41 43 40 39 38 36 36 35 35 37 42 46 51 50 51 52 43 52 53 56 67 72 72 71 70 70 71 79 63 66 95 77 63
72 72 70 65 52 43 36 36 38 41 41 40 38 34 33 34 34 35 37 40 46 51 52 53 51 52 53 55 56 58 65 65 71 68 68 71 75 65 64 79 72 63 63
74 71 61 53 45 38 34 35 39 39 39 38 36 35 36 34 35 36 42 46 52 52 52 48 51 55 55 58 58 57 58 65 64 73 80 72 61 64 73 57 62 77 65
62 55 52 48 40 35 34 38 38 39 38 37 36 36 35 35 37 45 50 53 56 54 56 55 58 58 59 67 60 59 57 61 63 61 63 66 72 68 62 61 64 67 70
53 47 45 42 39 36 34 37 37 39 38 38 38 37 36 35 43 52 55 53 57 61 63 65 64 61 65 62 60 59 59 57 58 67 72 72 69 63 63 64 68 68 66
50 45 42 41 40 38 33 37 42 40 40 38 37 36 43 46 49 52 55 57 64 68 69 69 71 64 58 66 62 62 60 58 62 68 65 67 64 64 64 69 68 67 70
49 42 40 40 42 40 40 39 42 39 37 37 39 47 57 55 57 54 52 63 70 73 70 68 66 72 64 64 62 60 63 64 64 66 72 62 63 66 68 65 63 66 68
49 44 42 42 46 42 41 42 40 37 36 39 44 52 55 59 59 57 62 69 68 68 69 70 68 69 69 61 59 58 59 61 62 64 62 63 67 72 69 68 67 68 70
50 48 48 46 46 43 43 43 41 37 38 42 46 62 61 65 62 66 67 54 53 55 54 54 56 56 58 59 61 62 63 64 67 66 70 77 79 80 76 77 78 77 81
Wind_Speed
6 6 6 6 5 3 5 7 10 10 11 9 8 8 7 5 5 6 7 8 8 7 6 5 5 5 5 4 5 3 4 3 5 3 5 4 2 3 4 3 4 4 5
6 7 5 5 6 6 6 7 8 8 7 7 4 5 5 5 5 4 7 8 7 6 6 6 5 5 4 6 6 5 3 3 5 3 1 5 6 3 10 4 3 5 4
11 8 8 8 6 7 8 8 8 9 8 11 11 9 9 6 4 4 4 5 7 7 7 6 5 5 4 4 3 3 5 3 3 4 3 4 3 5 3 4 2 9 4
9 7 7 7 8 6 7 8 9 10 9 11 12 16 8 7 2 3 4 5 6 7 6 6 6 5 3 4 3 3 3 2 2 3 2 1 3 4 7 3 7 4 8
15 13 13 11 7 8 7 7 9 8 7 8 10 9 9 6 4 5 7 6 5 6 6 6 5 5 3 3 4 4 4 1 0 0 2 2 3 4 4 12 6 9 8
12 8 6 8 7 7 7 8 10 7 7 8 8 12 14 11 9 5 5 4 3 4 5 5 5 4 3 3 2 2 3 3 2 1 2 2 2 3 3 7 11 13 10
13 14 14 12 10 11 8 8 11 8 8 9 8 9 11 10 9 7 5 6 3 2 3 3 4 3 2 3 3 3 3 2 2 3 3 2 2 2 3 6 12 12 11
16 18 18 14 12 12 10 9 10 11 9 9 8 8 8 6 5 5 5 4 3 3 3 3 3 3 4 3 3 2 3 2 3 4 4 3 3 2 3 6 10 14 8
16 18 16 13 12 11 9 10 10 9 9 10 8 7 7 8 7 7 6 4 4 3 4 4 3 3 3 3 4 3 5 4 3 4 4 3 3 3 4 4 5 7 12
15 15 14 15 10 10 8 8 9 11 10 10 8 7 8 7 7 6 6 6 5 3 4 3 3 3 3 4 4 4 5 5 4 4 4 4 3 4 4 4 6 6 9
18 16 14 12 12 10 10 9 10 12 10 10 9 9 7 7 6 6 6 5 4 4 4 3 3 4 5 5 5 5 6 5 6 5 5 7 6 4 5 5 6 7 8
13 15 14 14 13 12 10 9 9 10 9 9 9 8 7 7 7 6 6 5 5 4 3 3 5 5 5 5 6 6 6 6 7 7 6 7 6 7 7 6 8 9 10
14 13 13 13 12 11 10 10 9 10 9 9 10 7 7 7 6 6 5 5 4 4 4 5 5 5 5 6 6 5 6 6 7 7 7 8 7 8 7 8 10 9 9
14 14 12 11 11 10 11 10 9 9 9 9 8 8 7 6 6 5 5 5 4 5 5 5 5 5 5 6 6 6 6 7 6 6 7 7 8 9 10 10 10 10 12
13 13 14 12 11 10 9 9 9 9 9 9 8 7 6 6 6 6 5 5 5 4 4 5 5 4 5 5 7 6 6 6 6 7 7 7 11 21 18 12 13 15 12
13 13 13 13 13 13 12 11 10 9 9 8 8 7 6 6 6 5 5 5 5 4 3 4 5 6 5 14 16 14 5 5 6 8 8 7 13 13 23 25 27 24 16
15 15 15 15 13 12 13 12 11 9 8 8 7 7 6 6 5 5 5 5 3 2 4 5 5 6 6 14 17 17 3 5 6 7 9 9 9 16 12 21 27 23 20
13 12 12 11 12 11 11 11 11 9 9 8 7 6 6 6 5 5 4 2 2 4 3 4 5 6 6 15 17 18 5 6 7 8 9 10 11 12 19 18 11 12 12
10 10 11 12 13 13 13 13 10 9 9 7 7 6 6 6 6 4 2 2 2 3 3 4 6 6 7 16 18 16 6 7 8 8 8 10 12 20 29 16 15 15 13
11 13 13 13 13 11 13 13 10 9 8 7 6 6 6 6 5 3 2 1 1 3 4 6 5 9 7 15 18 16 7 9 8 7 8 14 19 28 27 18 15 13 16
13 14 12 12 12 12 13 12 10 8 7 7 7 6 6 6 4 3 1 2 3 4 5 5 6 6 7 8 18 19 10 9 9 9 9 8 24 27 29 27 10 15 19
12 12 14 12 9 10 13 11 9 7 7 7 7 6 5 4 3 4 3 3 4 5 5 6 6 4 6 13 15 20 21 20 11 10 9 12 26 28 26 19 24 26 21
11 11 14 14 8 7 11 12 7 7 7 7 7 6 5 4 4 4 4 3 4 3 5 4 4 6 5 5 16 20 21 21 13 8 18 25 25 23 16 21 24 22 9
12 12 14 12 8 7 8 10 7 7 8 7 6 5 4 4 4 3 3 3 4 4 4 5 6 5 6 5 7 6 8 13 11 15 8 16 18 18 18 14 12 9 9
9 9 11 10 8 8 9 7 7 7 7 6 5 4 3 3 3 2 2 3 4 4 4 4 4 6 7 7 18 17 11 11 14 17 8 8 9 10 10 10 10 10 10
9 10 9 11 8 9 8 7 6 7 7 5 4 3 2 2 2 3 4 5 8 12 13 15 11 7 15 21 22 23 24 24 23 9 8 9 9 10 10 11 11 10 13
Wind_Direction
268 210 199 182 158 173 158 143 127 139 133 129 125 117 115 105 81 78 88 85 84 79 78 74 65 56 64 54 33 19 21 349 355 351 333 328 6 287 351 0 349 2 354
204 201 190 178 178 173 157 138 136 141 137 130 104 109 122 93 92 90 78 76 83 83 81 84 72 63 65 45 38 41 6 354 22 355 312 344 330 339 324 323 340 336 328
199 194 183 190 169 173 154 143 140 131 120 123 112 99 96 91 97 84 72 65 82 80 81 78 79 69 70 66 56 49 53 9 334 38 67 346 297 318 316 312 303 334 319
200 170 170 176 177 178 140 134 133 127 132 140 132 145 140 138 133 116 104 86 81 78 81 83 77 77 75 62 38 55 63 83 12 328 26 245 235 308 317 290 303 297 310
183 177 181 177 172 148 146 134 127 123 128 130 136 124 113 105 111 109 104 95 77 77 74 79 83 77 65 64 60 41 30 49 30 283 321 289 268 256 264 300 307 304 310
188 165 125 129 135 128 133 135 132 117 120 118 116 129 130 133 128 125 114 107 90 75 68 74 74 72 65 50 45 41 31 11 350 305 291 253 291 293 284 291 305 299 306
162 153 154 159 156 151 147 141 140 126 119 116 115 119 126 128 133 140 133 131 120 87 65 70 61 57 49 44 37 32 8 329 323 307 293 271 268 256 267 303 303 301 306
172 167 166 164 159 151 147 141 139 127 122 115 111 106 110 116 116 125 121 117 115 112 89 87 73 50 40 36 26 9 331 318 306 304 295 265 274 268 270 297 306 308 295
175 168 159 159 153 148 143 143 130 118 117 113 111 107 109 114 123 113 108 110 107 117 104 79 64 40 25 18 4 346 322 311 289 288 266 258 267 264 260 264 276 285 306
170 162 159 147 140 130 118 114 126 128 122 114 115 114 114 111 110 108 110 108 107 89 87 69 52 24 6 355 355 329 306 306 298 289 272 283 263 269 261 258 269 267 278
169 159 150 142 129 119 122 121 123 124 120 118 114 115 112 107 107 107 107 105 97 85 68 50 27 11 356 352 340 317 297 316 298 292 278 273 268 263 277 274 271 271 266
155 149 138 134 136 131 130 127 124 122 124 122 116 113 113 113 107 105 104 100 94 72 59 34 23 5 352 334 322 313 311 299 295 287 279 268 278 276 272 272 274 272 274
138 134 132 140 140 135 133 133 129 125 125 121 118 114 116 114 112 108 103 93 84 62 38 33 19 354 337 322 311 304 294 290 286 281 274 273 276 284 285 280 282 277 282
144 142 136 139 136 141 139 134 123 130 129 121 120 121 127 122 117 113 99 87 73 58 38 22 2 346 321 310 303 293 292 289 286 289 286 280 277 282 288 286 293 303 295
151 150 146 145 140 136 130 128 127 132 132 126 122 127 123 118 115 104 91 80 65 52 35 9 347 337 327 327 319 310 297 301 310 296 284 284 295 312 312 309 314 304 301
156 153 149 148 150 148 143 137 137 139 134 129 126 127 122 119 113 102 92 79 55 32 13 358 347 340 337 327 333 334 327 326 301 303 300 285 304 300 311 311 306 303 298
161 161 161 157 151 148 144 146 145 133 125 125 127 127 126 120 112 100 83 60 34 354 358 350 342 322 313 326 330 328 325 302 292 299 306 303 300 309 292 290 295 304 315
159 153 146 137 137 135 130 126 132 130 127 123 126 127 124 118 111 88 67 29 15 1 335 323 325 319 311 327 325 323 302 289 279 281 284 287 292 293 301 309 319 311 307
144 141 137 131 132 133 133 127 123 121 122 127 129 131 127 116 97 94 56 20 3 324 327 318 320 320 304 322 326 326 307 296 277 275 275 283 295 303 315 322 317 316 309
124 126 122 120 121 130 132 128 128 124 126 135 132 122 107 112 113 97 62 345 330 329 332 321 316 315 311 317 326 328 313 308 307 304 286 296 316 316 323 324 323 319 306
112 114 116 121 125 128 125 120 123 126 130 120 110 106 107 107 103 96 56 358 352 335 328 320 306 298 302 302 325 328 321 310 315 319 322 312 317 322 328 325 330 301 316
105 108 108 107 107 116 116 118 120 126 115 112 107 101 93 81 89 70 31 11 359 344 325 309 303 287 289 315 324 327 325 323 325 323 316 309 322 327 326 330 315 324 332
101 105 111 105 89 96 123 120 134 120 113 101 103 101 98 78 52 43 12 358 354 324 301 297 298 311 311 290 312 319 319 326 322 320 313 330 325 326 325 318 325 326 313
101 108 107 106 101 94 88 113 120 112 107 107 106 99 94 73 46 32 8 345 320 313 301 308 317 301 308 305 302 301 310 316 322 319 331 324 325 321 317 320 317 313 314
95 104 111 109 104 101 99 104 113 113 105 106 107 91 80 57 26 354 279 304 274 281 309 300 297 313 317 310 326 326 325 330 331 334 332 320 321 320 318 317 316 317 317
105 99 99 108 107 105 101 102 105 111 116 111 103 82 63 23 346 329 314 301 324 336 334 330 326 318 319 326 328 328 338 336 334 338 322 318 318 317 316 316 316 316 317